Copper Harbor, MI

8:14 AM EDT on June 28, 2017 (GMT -0400)
Copper Harbor

Weather History for KP59 - September, 2013

Change the Weather History Date:

Tuesday, September 17, 2013

  Actual Average Record
Temperature  
Mean Temperature 54 °F -  
Max Temperature 63 °F 61 °F 79 °F (2015)
Min Temperature 46 °F 47 °F 1 °F (1997)
Degree Days  
Heating Degree Days 10    
Growing Degree Days 4 (Base 50)    
Moisture  
Dew Point 44 °F    
Average Humidity 67    
Maximum Humidity 86    
Minimum Humidity 39    
Precipitation  
Precipitation 0.00 in - - ()
Sea Level Pressure  
Sea Level Pressure 30.20 in    
Wind  
Wind Speed 8 mph (WSW)    
Max Wind Speed 12 mph    
Max Gust Speed 20 mph    
Averages and records for this station are not official NWS values.
T = Trace of Precipitation, MM = Missing Value Source: NWS Daily Summary

Daily Weather History Graph

Daily Weather History Graph

Search for Another Location

Airport or City:

Trip Planner

Search our weather history database for the weather conditions in past years. The results will help you decide how hot, cold, wet, or windy it might be!

Date:

Astronomy

Sep. 17, 2013 Rise Set
Actual Time 7:32 AM EDT 7:59 PM EDT
Civil Twilight 7:01 AM EDT 8:29 PM EDT
Nautical Twilight 6:24 AM EDT 9:06 PM EDT
Astronomical Twilight 5:46 AM EDT 9:43 PM EDT
Moon 6:49 PM EDT (9/17) 5:20 AM EDT (9/17)
Length of Visible Light 13h 28m
Length of Day
12h 27m
Waxing Gibbous, 96% of the Moon is Illuminated
Sep 17
Waxing Gibbous
Sep 19
Full
Sep 26
Last Quarter
Oct 4
New
Oct 11
First Quarter

Hourly Weather History & Observations

Time (EDT) Temp. Windchill Dew Point Humidity Pressure Visibility Wind Dir Wind Speed Gust Speed Precip Events Conditions
12:51 AM 50.0 °F - 45.0 °F 83% 30.31 in - WSW 8.1 mph - N/A   Unknown
1:51 AM 51.1 °F - 44.1 °F 77% 30.30 in - SW 8.1 mph 16.1 mph N/A   Unknown
2:51 AM 50.0 °F - 45.0 °F 83% 30.30 in - WSW 9.2 mph - N/A   Unknown
3:51 AM 48.9 °F - 45.0 °F 86% 30.30 in - WSW 8.1 mph - N/A   Unknown
4:51 AM 48.9 °F - 42.1 °F 77% 30.30 in - WSW 11.5 mph 18.4 mph N/A   Unknown
5:51 AM 48.0 °F - 41.0 °F 77% 30.30 in - WSW 10.4 mph 18.4 mph N/A   Unknown
6:51 AM 46.0 °F 41.9 °F 41.0 °F 83% 30.31 in - WSW 8.1 mph - N/A   Unknown
7:51 AM 46.9 °F - 39.9 °F 77% 30.31 in - West 10.4 mph 17.3 mph N/A   Unknown
8:51 AM 48.9 °F - 39.9 °F 71% 30.31 in - West 6.9 mph - N/A   Unknown
9:51 AM 52.0 °F - 39.0 °F 61% 30.30 in - WSW 8.1 mph 17.3 mph N/A   Unknown
10:51 AM 55.0 °F - 39.9 °F 57% 30.28 in - Variable 5.8 mph 16.1 mph N/A   Unknown
11:51 AM 57.9 °F - 41.0 °F 53% 30.25 in - SW 10.4 mph 19.6 mph N/A   Unknown
12:51 PM 59.0 °F - 37.9 °F 46% 30.24 in - SW 8.1 mph 18.4 mph N/A   Unknown
1:51 PM 59.0 °F - 39.9 °F 49% 30.22 in - SSW 9.2 mph 19.6 mph N/A   Unknown
2:51 PM 61.0 °F - 37.9 °F 42% 30.18 in - SW 8.1 mph - N/A   Unknown
3:51 PM 61.0 °F - 36.0 °F 39% 30.15 in - WSW 8.1 mph - N/A   Unknown
4:51 PM 62.1 °F - 45.0 °F 53% 30.12 in - Variable 5.8 mph - N/A   Unknown
5:51 PM 63.0 °F - 48.0 °F 58% 30.09 in - Variable 4.6 mph - N/A   Unknown
6:51 PM 62.1 °F - 50.0 °F 65% 30.07 in - Variable 3.5 mph - N/A   Unknown
7:51 PM 59.0 °F - 52.0 °F 78% 30.05 in - Calm Calm - N/A   Unknown
8:51 PM 57.9 °F - 50.0 °F 75% 30.05 in - Variable 5.8 mph - N/A   Unknown
9:51 PM 60.1 °F - 50.0 °F 69% 30.05 in - SW 4.6 mph - N/A   Unknown
10:51 PM 59.0 °F - 51.1 °F 75% 30.05 in - SW 5.8 mph - N/A   Unknown
11:51 PM 59.0 °F - 51.1 °F 75% 30.04 in - Variable 5.8 mph - N/A   Unknown